Location: Stockholm
(59.3293°N, 18.0686°E)
Time: 00:36:55
(UTC+01:00)

N. Korean satellite - Visible Passes

Search period start: 15 December 2018 00:00
Search period end: 25 December 2018 00:00
Orbit: 456 x 511 km, 97.2° (Epoch: 13 December)

Date Brightness Start Highest point End Pass type
(mag) Time Alt. Az. Time Alt. Az. Time Alt. Az.
15 Dec 9.8 05:03:45 10° NE 05:05:50 15° E 05:07:55 10° ESE visible
15 Dec 6.4 06:36:14 10° NNE 06:39:48 82° WNW 06:43:24 10° SSW visible
15 Dec 7.6 15:48:20 10° ESE 15:51:08 23° ENE 15:53:58 10° N visible
15 Dec 7.5 17:21:03 10° S 17:24:24 48° W 17:27:48 10° NNW visible
16 Dec 7.2 06:11:39 10° NNE 06:15:11 58° E 06:18:45 10° S visible
16 Dec 6.4 16:56:19 10° SSE 16:59:46 85° WSW 17:03:16 10° NNW visible
16 Dec 9.9 18:32:23 10° WSW 18:33:50 12° W 18:35:18 10° WNW visible
17 Dec 8.3 05:47:11 10° NNE 05:50:30 34° E 05:53:50 10° SSE visible
17 Dec 7.2 07:20:44 10° N 07:23:58 33° WNW 07:27:14 10° SW visible
17 Dec 6.5 16:31:50 10° SSE 16:35:12 55° ENE 16:38:38 10° N visible
17 Dec 9.3 18:06:24 10° SW 18:08:58 19° W 18:11:35 10° NW visible
18 Dec 9.2 05:22:55 10° NE 05:25:45 21° E 05:28:36 10° SE visible
18 Dec 6.6 06:55:58 10° N 06:59:28 54° WNW 07:03:01 10° SW visible
18 Dec 7.1 16:07:33 10° SE 16:10:42 33° ENE 16:13:53 10° N visible
18 Dec 8.4 17:41:05 10° SSW 17:44:11 31° W 17:47:22 10° NNW visible
19 Dec 9.9 04:59:00 10° NE 05:00:55 14° E 05:02:50 10° ESE visible
19 Dec 6.5 06:31:18 10° NNE 06:34:55 90° SE 06:38:34 10° SSW visible
19 Dec 7.7 15:43:33 10° ESE 15:46:16 22° ENE 15:49:01 10° N visible
19 Dec 7.2 17:16:06 10° S 17:19:29 54° W 17:22:56 10° NNW visible
20 Dec 7.4 06:06:44 10° NNE 06:10:17 53° E 06:13:52 10° S visible
20 Dec 7.7 07:40:36 10° N 07:43:32 24° WNW 07:46:29 10° WSW visible
20 Dec 6.4 16:51:23 10° SSE 16:54:51 86° ENE 16:58:23 10° NNW visible
20 Dec 9.9 18:27:05 10° WSW 18:28:52 13° W 18:30:40 10° NW visible
21 Dec 8.5 05:42:17 10° NNE 05:45:35 32° E 05:48:53 10° SSE visible
21 Dec 7.1 07:15:45 10° N 07:19:05 36° WNW 07:22:27 10° SW visible
21 Dec 6.6 16:26:55 10° SE 16:30:17 50° ENE 16:33:43 10° N visible
21 Dec 9.2 18:01:17 10° SW 18:04:00 21° W 18:06:47 10° NW visible
22 Dec 9.4 05:18:03 10° NE 05:20:48 20° E 05:23:34 10° SE visible
22 Dec 6.6 06:51:00 10° N 06:54:34 59° WNW 06:58:11 10° SSW visible
22 Dec 7.3 16:02:41 10° SE 16:05:47 31° ENE 16:08:56 10° N visible
22 Dec 8.2 17:36:00 10° SSW 17:39:13 35° W 17:42:30 10° NNW visible
23 Dec 10.0 04:54:14 10° ENE 04:55:56 13° E 04:57:38 10° ESE visible
23 Dec 6.6 06:26:20 10° NNE 06:29:59 82° ESE 06:33:40 10° SSW visible
23 Dec 7.8 15:38:42 10° ESE 15:41:21 20° ENE 15:44:03 10° N visible
23 Dec 7.0 17:11:05 10° S 17:14:31 60° WSW 17:18:02 10° NNW visible
24 Dec 7.6 06:01:47 10° NNE 06:05:20 48° E 06:08:55 10° S visible
24 Dec 7.6 07:35:34 10° N 07:38:38 26° WNW 07:41:43 10° WSW visible
24 Dec 6.4 16:46:24 10° SSE 16:49:53 78° ENE 16:53:26 10° NNW visible
24 Dec 9.7 18:21:47 10° WSW 18:23:51 15° W 18:25:56 10° NW visible
